Showing default

COSMOS 2506, 40699

Orbit data source: Space-Track

COSMOS 2506, 40699 is a payload satellite owned by VVKO VKS (CIS) in SSO that was launched on Tue, 23 Jun 2015 UTC via a SOYUZ-2-1B launch vehicle from the Plesetsk Missile And Space Complex (PKMTR). Payload-class satellites include a variety of spacecraft equipped with specific instruments for various scientific and technological missions. These include communications satellites like Starlink; space stations such as the ISS; scientific satellites like the Hubble; Earth observation satellites from companies like Planet Labs, Umbra, and HawkEye 360; GPS; miniature CubeSats for education and research; and military/defense satellites.

Loading next visibility...
Identifier
40699, 2015-029A
Orbit
SSO
Country
Flag of CISCIS
Related business
Manufacturer
TsSKB-Progress
Mission
Operational Defense Imaging
Bus & Motor
PERSONA-1, 11D428
Mass
~7,000 kg wet, ~7,000 kg dry
Launch date (UTC)
2015-06-23 (11 years ago)
Launch vehicle
SOYUZ-2-1B
Launch site
Plesetsk Missile And Space Complex (PKMTR)
Object type
Payload
Rocket body
Debris
Shape & HBR
Cyl + 2 Pan, 3.1 m
Radar Cross Section
16.222 m², Large (>1 m²)

Expand to show TLE details & history
Last TLE update: 4 hours ago

TLE from 4 hours ago
0 COSMOS 2506
1 40699U 15029A   26106.93907007 -.00000087  00000-0 -10420-4 0  9993
2 40699  98.0535 150.0633 0007071 357.1738   2.9418 14.54364612573989
Epoch: 2026-04-16T22:32Z
TLE epoch observation values (Epoch: 2026-04-16T22:32:15.654Z)
Latitude
-0.00003°
Longitude
-33.08135°
Altitude
709.403 km
Speed
7.504 km/s
True Right ascension
10h 00m 15s
True Declination
0° 00' 00"
Sunlit
Object was in full shadow at epoch
Visualization orbit readout
Latitude
Unknown
Longitude
Unknown
Altitude
Unknown
Speed
Unknown
Apparent Right ascension
Unknown
Apparent Declination
Unknown
Sunlit
N/A
Visualization observer readout
Local Sidereal Time
09:40:56
Azimuth
Unknown
Elevation
Unknown
Doppler factor
Unknown
Orbital elements
Apogee altitude
713.522 km
Perigee altitude
703.5 km
Semi-major axis
7,086.648 km
Eccentricity
0.00071
Inclination
98.0535°
RAAN
150.0633°
Arg. of periapsis
357.1738°
True anomaly
2.94596°
Mean anomaly
2.9418°
Eccentric anomaly
2.94388°
Mean motion
3.63816 °/min
Orbital period
98.95 mins
BSTAR
-0.00001042
Loading maneuver chart data...
Computing Atmospheric mass density...
Loading historical data...
Loading historical data...
Loading historical data...
Loading historical data...
Loading historical data...
Loading historical data...
Loading historical data...
Other satellites on launch #29 in the year 2015 (2015-06-23 UTC)

Documentation

Showing up to 5 results
|